アトラス彗星

C/2021 Y1 ( ATLAS )

English version
Home page
Updated on September 29, 2022

---------------------------------------------------------------------

・ プロフィール

発見日 2021年12月26日
発見光度 18.9等
発見者 Asteroid Terrestrial-Impact Last Alert System (ATLAS) search program

・ 写真集

・ 軌道要素

Epoch 2022 Aug. 9.0 TT = JDT 2459800.5
T 2023 Apr. 30.70754 TT                                 Rudenko
q   2.0326548            (2000.0)            P               Q
z  -0.0003726      Peri.  245.80770     -0.00833163     -0.47103580
 +/-0.0000068      Node   244.77001     +0.77304210     -0.56257286
e   1.0007573      Incl.   77.18591     -0.63430000     -0.67943877
From 395 observations 2021 Nov. 8-2022 Sept. 8, mean residual 0".6.

・ 星図

・ 光度変化

        m1 = 7.0 + 5 logΔ + 10.0 log r

---------------------------------------------------------------------

軌道要素はM.P.E.C. 2022-R139に掲載されたものです。
星図はステラナビゲータ Ver.10 (アストロアーツ) で作成したものです。
光度グラフはComet for Windowsで作成したものです。

---------------------------------------------------------------------

Copyright(C) Seiichi Yoshida (comet@aerith.net). All rights reserved.